Wind_Speed
20 18 19 17 16 13 12 11 11 11 13 15 17 20 21 22 25 14 13 7 4 7 7 8 7 8 10 7 7 5 8 12 19 13 11 6 9 4 2 9 7 6 9 13 17
22 20 22 19 18 15 13 12 12 12 13 15 16 19 18 21 19 17 7 4 2 8 11 12 8 10 6 9 6 11 11 15 11 12 13 12 10 11 9 13 14 13 14 11 12
25 24 23 22 20 18 16 13 12 12 12 14 16 19 16 17 10 3 2 5 6 7 7 9 6 9 10 6 10 9 18 15 9 13 12 15 16 13 14 17 15 15 14 11 10
28 27 26 25 24 21 18 16 13 11 12 13 15 17 13 5 10 3 4 5 9 7 7 8 8 9 8 12 13 12 14 14 14 13 15 16 16 19 18 18 17 16 14 11 11
31 29 29 28 27 24 20 17 13 11 10 11 13 14 6 6 9 5 5 6 8 7 11 9 9 8 12 6 10 16 16 13 14 15 17 16 19 22 19 18 16 15 14 13 12
32 31 31 31 30 27 22 17 12 11 9 9 10 9 4 10 1 4 6 9 13 14 16 15 9 11 8 9 12 3 9 11 10 12 14 16 18 17 14 13 13 13 13 12 8
27 32 33 33 31 29 25 19 13 11 9 8 9 4 7 15 3 6 5 9 11 13 13 14 10 10 4 9 9 11 16 16 17 17 16 14 19 22 18 18 11 11 9 8 8
29 28 31 32 30 31 24 20 15 12 9 8 5 5 9 10 9 13 14 14 9 11 9 5 9 11 9 7 10 10 13 13 3 5 7 10 15 4 5 6 10 8 8 8 9
30 28 28 33 29 30 23 19 12 9 8 6 5 6 11 5 8 9 17 14 17 11 10 2 8 11 7 12 12 13 14 14 10 10 11 12 11 3 5 11 12 13 11 9 7
32 29 27 30 32 28 24 14 7 3 2 4 4 6 8 7 5 3 6 13 11 13 10 11 8 11 12 12 15 15 17 14 13 5 11 14 18 16 17 18 18 14 11 9 5
29 29 27 27 36 29 26 9 4 5 8 12 8 7 3 3 6 10 10 13 13 16 19 17 14 20 22 19 21 15 15 17 15 14 14 16 18 16 14 16 16 14 12 5 2
30 30 25 33 32 33 27 6 6 2 7 22 21 21 22 5 9 14 14 14 15 19 19 13 22 22 19 18 17 17 18 18 14 12 9 15 18 17 17 16 13 11 4 2 2
29 27 25 33 39 33 24 11 11 8 2 9 16 16 14 19 16 22 19 19 17 21 23 23 10 9 15 18 19 19 19 16 14 14 16 18 21 17 2 3 6 5 6 5 6
26 26 27 43 26 25 9 17 14 9 1 8 8 9 12 10 10 27 26 18 14 21 20 16 21 11 13 20 16 18 17 15 16 12 10 2 6 6 7 8 9 6 5 6 9
25 28 44 43 20 13 12 26 19 2 5 3 4 2 7 13 8 7 30 23 25 17 12 12 10 16 21 18 14 13 10 14 14 13 13 15 8 7 9 12 9 7 7 8 9
25 34 46 27 17 19 33 30 11 4 8 2 6 8 9 12 6 3 20 18 17 13 15 18 3 7 10 16 18 8 10 11 10 10 12 17 12 10 13 7 9 6 6 7 9
30 55 47 32 15 38 42 11 3 5 5 10 9 8 11 9 11 9 17 21 12 17 19 16 15 4 4 8 8 11 11 8 9 8 10 1 9 10 8 3 6 4 6 9 11
41 49 24 23 48 50 24 2 8 6 13 3 4 8 10 9 6 7 16 17 9 12 9 13 10 10 3 6 8 14 15 10 11 11 5 4 7 4 10 11 10 7 6 8 10
49 19 18 31 48 39 8 5 7 8 7 8 7 11 12 10 6 10 14 19 17 7 11 9 5 3 5 2 2 7 10 4 6 8 9 11 7 9 10 12 8 6 7 8 10
21 12 8 33 38 15 2 5 7 6 5 8 14 11 13 13 12 10 13 3 6 1 4 3 2 2 2 1 1 4 3 3 4 5 12 9 12 6 11 6 6 6 8 9 10
16 4 2 27 25 3 4 4 8 3 5 6 9 7 7 7 9 9 8 5 6 3 4 6 9 5 1 6 9 5 6 5 5 6 7 10 6 6 9 3 4 7 8 10 11
5 3 12 26 3 2 4 8 5 1 1 2 2 2 8 1 6 4 4 3 5 10 8 3 2 8 8 1 6 7 9 10 8 10 8 9 11 5 6 5 6 8 7 9 11
3 3 3 3 5 7 8 7 7 13 10 6 3 5 4 4 1 4 3 2 5 3 7 6 4 5 4 5 4 6 7 6 4 3 12 11 2 9 7 3 4 7 7 7 9
4 5 1 2 2 13 10 7 8 1 3 3 4 4 7 7 7 7 7 2 1 5 6 3 5 8 8 5 2 6 12 10 8 5 12 15 19 12 10 15 5 6 6 7 9
3 4 8 8 5 11 12 13 14 9 4 6 5 8 9 6 9 8 8 8 5 5 3 2 5 8 9 7 6 9 12 15 18 17 17 18 20 17 17 17 4 2 4 6 9
4 5 5 13 12 13 10 15 16 9 9 8 6 8 8 6 7 11 9 8 6 5 4 2 2 3 9 10 11 14 16 19 19 18 21 23 24 20 17 6 1 3 5 7 9
2 3 6 10 13 13 12 14 15 12 4 3 11 9 8 8 7 7 5 5 4 5 6 5 4 4 6 3 6 12 17 16 16 12 13 15 17 17 4 5 2 3 5 6 8
Wind_Direction
289 292 287 287 280 283 286 293 303 314 321 332 336 333 332 329 322 313 284 254 235 209 172 154 165 175 199 204 215 232 239 245 240 248 259 189 263 157 307 259 268 267 279 306 310
286 288 286 286 280 278 279 286 294 304 318 329 333 330 334 330 317 287 257 239 186 179 175 184 177 175 202 221 210 218 238 252 250 255 260 265 261 282 271 257 256 264 262 275 293
284 284 283 283 277 274 275 277 284 298 313 326 330 328 338 337 292 71 150 178 156 159 199 196 200 207 237 231 216 225 248 269 246 260 261 269 271 262 259 265 261 277 288 289 292
281 279 281 280 277 270 270 269 274 288 308 322 326 327 339 329 311 94 164 152 179 189 176 177 181 200 236 219 229 257 246 270 263 268 262 258 271 271 269 270 274 281 283 289 277
276 276 278 277 276 269 261 260 269 283 303 317 324 330 353 258 254 247 201 175 172 191 214 208 214 223 240 240 240 239 256 260 258 261 262 272 263 264 271 271 273 270 272 270 265
271 271 271 274 276 268 253 250 257 277 293 313 318 333 271 263 197 204 207 216 230 232 239 235 247 241 265 237 235 318 264 262 260 253 254 258 262 255 253 260 263 266 262 268 273
271 266 268 268 266 265 248 238 241 259 288 309 308 301 250 252 222 207 213 223 239 231 244 237 234 212 228 240 253 265 271 265 255 251 244 258 266 252 259 263 267 257 241 249 272
270 266 263 261 260 256 245 229 236 250 271 304 293 246 256 251 257 255 238 235 226 215 230 220 221 239 242 272 244 257 257 264 173 217 215 215 269 249 216 234 246 259 263 270 255
275 267 258 254 255 240 235 222 237 249 265 289 255 249 266 255 238 257 224 224 217 208 208 232 217 235 200 234 251 223 261 233 254 222 261 225 269 248 228 244 265 275 272 269 273
278 270 259 249 247 223 212 202 216 268 199 158 259 260 239 240 202 191 183 211 199 194 208 217 222 224 222 223 236 256 241 253 253 220 229 249 264 265 260 262 264 267 273 274 282
275 273 259 243 218 218 184 136 138 199 212 203 205 250 261 268 253 208 174 178 202 199 215 208 224 225 231 227 255 267 271 268 270 269 275 266 265 266 256 251 253 256 248 255 300
279 263 254 235 205 206 198 190 200 79 282 228 250 252 256 278 276 227 178 187 194 211 209 206 234 239 235 244 240 247 258 260 271 270 269 266 275 277 265 250 254 256 187 165 11
269 253 242 223 190 179 176 177 141 138 268 264 225 247 240 213 237 245 198 212 209 218 209 216 246 264 228 230 233 235 245 256 266 287 275 267 271 255 212 171 168 145 114 94 41
242 237 216 171 162 163 170 164 132 110 337 249 204 244 205 198 243 235 213 212 220 238 230 236 252 224 224 234 221 242 234 255 256 259 261 148 284 197 227 162 174 146 103 55 27
226 217 191 193 156 172 174 163 127 129 267 67 146 80 159 193 338 206 206 210 223 212 205 219 231 236 234 232 213 250 256 246 244 251 263 254 254 248 167 177 158 129 74 47 23
218 193 185 171 145 157 148 141 135 146 248 254 171 193 176 212 240 51 183 224 227 229 225 252 208 231 252 235 243 268 230 231 243 250 249 245 228 272 173 179 128 110 68 31 10
191 173 170 172 156 147 140 132 125 216 145 197 204 189 216 201 209 194 186 195 192 205 212 210 215 190 225 197 187 218 228 230 222 210 243 92 213 248 137 87 64 103 37 10 1
187 177 168 174 153 146 141 125 203 224 217 57 240 202 216 184 192 199 188 199 239 244 222 209 198 203 155 247 243 214 229 245 257 247 258 178 239 138 104 115 99 82 35 359 353
151 135 142 157 152 153 127 216 197 212 186 188 202 212 206 202 218 182 192 200 198 221 217 209 183 89 60 15 287 189 225 343 280 261 269 253 212 142 138 141 121 62 17 1 346
139 120 124 159 156 144 134 197 215 188 184 202 210 205 210 194 194 203 187 178 155 69 27 90 236 223 141 231 114 285 63 192 218 253 254 246 241 235 172 126 58 15 354 353 349
117 105 128 146 147 108 184 175 188 172 202 195 209 202 223 189 210 185 182 145 151 77 117 175 226 140 203 212 251 193 215 232 298 263 270 280 277 42 93 105 18 7 3 360 356
103 106 158 147 148 224 161 165 146 184 333 94 109 132 206 107 167 134 145 77 139 155 167 166 209 229 212 339 261 253 258 253 238 240 247 286 276 119 103 53 6 10 4 357 354
88 98 225 178 184 171 154 144 176 175 187 176 142 83 54 104 55 319 77 55 144 155 152 167 197 200 198 205 199 218 212 203 224 250 250 248 230 124 141 134 12 340 353 354 351
137 127 157 262 312 168 159 159 153 150 144 132 166 167 175 165 176 179 162 101 117 132 93 160 214 247 257 37 63 197 192 204 206 234 251 247 273 265 273 309 330 325 350 355 360
181 157 168 176 177 168 169 171 168 171 197 182 157 200 183 172 177 190 155 143 126 123 93 175 238 240 254 259 247 253 237 234 240 241 255 274 277 285 287 301 4 314 9 7 7
142 155 171 154 150 165 190 184 177 148 173 176 181 156 183 181 219 179 166 178 175 164 156 148 217 254 260 259 253 259 257 254 257 262 269 276 278 283 302 93 199 27 32 21 10
101 47 118 154 168 172 187 182 179 147 63 157 147 141 138 112 90 90 71 119 137 177 178 183 185 207 246 254 272 267 249 251 253 261 258 258 271 291 198 170 129 84 46 26 14
Height
820 819 821 819 820 819 818 817 816 814 814 811 808 807 805 800 797 794 790 787 786 785 787 786 787 787 788 783 782 780 777 769 762 765 760 757 760 753 757 758 755 755 752 750 750
816 815 817 816 817 815 815 815 815 814 812 810 808 805 803 799 794 789 785 784 785 786 786 785 784 784 782 782 780 777 771 759 750 754 758 756 758 755 761 754 754 752 748 749 749
811 812 812 813 813 812 812 813 813 813 810 809 807 805 801 798 791 780 783 783 785 789 787 783 784 783 781 780 777 770 768 755 764 764 759 758 756 755 759 759 753 752 748 746 747
805 807 808 808 809 808 809 811 810 809 809 808 806 803 800 800 791 782 782 782 784 788 788 785 781 781 780 777 769 778 768 764 763 762 761 761 756 755 753 751 749 747 746 745 744
800 800 803 804 804 805 805 808 809 808 807 806 805 803 802 795 784 782 781 783 785 787 785 782 779 774 775 771 770 774 765 762 762 763 761 757 757 754 750 745 746 745 744 744 742
794 795 797 799 800 800 801 804 805 807 805 803 803 803 802 795 777 779 778 784 784 785 782 780 775 772 770 772 771 762 765 761 758 757 756 759 751 748 744 742 741 742 742 740 740
788 789 789 793 795 797 797 799 800 803 804 802 802 802 800 784 776 776 777 779 783 780 780 778 777 776 768 770 764 766 767 757 754 753 750 749 750 743 738 735 738 740 738 737 738
782 783 783 788 791 793 793 795 797 800 801 801 801 802 786 774 775 772 773 774 778 780 780 778 778 772 773 766 764 766 759 759 742 747 746 750 744 727 731 735 734 732 732 733 732
776 777 775 780 786 788 790 792 795 797 799 800 803 801 776 769 768 766 766 770 773 777 779 779 778 772 770 770 762 754 750 745 745 743 743 746 736 732 731 733 732 729 729 729 730
769 771 770 774 778 781 786 790 793 795 797 798 802 802 773 760 760 761 763 768 770 773 778 776 771 768 765 760 751 737 742 744 749 737 745 739 736 730 729 729 727 725 725 726 729
760 762 765 768 770 772 781 791 797 794 792 775 771 766 763 763 762 757 758 763 765 765 768 766 765 754 751 750 746 742 748 747 739 736 745 743 734 725 719 721 720 721 720 724 730
750 754 757 764 764 770 774 779 780 780 773 774 773 765 759 763 759 755 758 756 758 756 754 761 759 741 740 746 750 750 751 746 739 739 744 735 726 717 712 711 714 715 720 729 731
739 745 751 757 761 766 769 772 775 780 784 758 758 752 751 757 751 743 752 745 747 746 742 745 736 737 744 747 751 746 746 744 744 737 733 731 720 704 707 707 715 721 726 732 736
729 735 742 748 762 761 768 772 773 779 791 745 745 740 743 746 742 736 737 739 743 741 740 743 733 741 745 744 744 741 734 742 743 741 734 727 721 705 704 709 716 724 728 735 740
722 727 730 738 748 759 759 769 772 781 769 730 737 739 738 738 725 720 728 733 732 737 740 738 741 740 740 736 736 737 734 738 735 734 731 724 729 693 702 711 716 724 733 740 745
714 720 724 738 744 749 757 766 773 779 747 732 730 736 736 734 727 726 728 733 730 738 739 734 733 734 731 731 734 737 739 736 735 733 734 716 716 693 699 703 715 729 738 742 745
708 713 721 730 738 746 754 764 774 751 731 725 724 729 726 725 728 724 729 731 730 739 736 733 732 732 734 734 735 739 737 736 735 735 723 709 711 695 706 716 722 736 739 742 745
704 715 720 729 734 739 749 764 745 719 719 720 720 717 723 719 719 722 725 730 731 726 724 730 738 733 735 733 730 733 729 730 730 716 708 717 716 699 720 732 740 745 747 750 747
703 716 722 727 730 737 740 744 719 720 714 720 722 721 718 718 716 720 725 725 725 727 725 731 734 741 742 743 744 733 738 734 737 729 730 705 698 718 729 737 739 745 748 751 753
707 718 726 727 729 736 741 724 720 713 715 716 711 708 710 713 715 714 721 726 735 736 728 744 745 745 746 747 745 741 738 745 742 743 727 698 696 695 723 730 741 752 751 750 749
708 721 729 730 734 736 729 726 721 719 719 714 709 712 709 719 711 715 721 736 733 744 740 741 746 751 751 746 736 742 741 744 741 732 727 715 698 714 734 744 746 744 748 749 748
711 721 729 729 735 732 729 726 727 726 724 718 717 716 715 725 720 723 726 726 736 738 738 746 738 735 741 749 750 746 744 741 744 737 733 727 717 727 736 740 744 746 751 752 753
713 726 733 732 719 723 725 725 718 719 716 715 719 716 723 734 738 734 734 744 741 739 737 741 739 740 744 750 749 744 743 745 753 749 740 731 713 727 742 743 749 751 753 754 757
708 717 731 731 727 713 724 728 726 719 719 719 719 721 725 731 740 740 741 745 744 740 747 743 738 733 727 732 735 748 745 747 753 755 733 721 719 717 723 728 737 753 757 757 759
700 700 702 714 719 718 722 725 720 721 717 718 722 717 720 729 733 736 738 744 745 750 750 746 748 742 739 741 747 743 741 742 740 741 745 733 733 735 734 734 750 759 759 760 764
696 692 699 697 711 717 718 708 708 715 716 718 716 721 721 723 721 730 733 735 739 749 750 754 755 756 750 746 746 746 740 736 737 739 738 734 732 731 732 751 758 764 764 766 770
694 695 694 708 709 712 708 702 703 714 725 716 719 722 727 735 735 736 740 739 741 744 752 751 753 758 754 752 753 750 736 735 734 736 737 744 732 728 747 756 761 767 771 775 776